Date String (YYYY-MM-DD hh:mm:ss) UTC,Instrument flags,Ambient pressure (hPa),Sample flow (lpm),Bypass flow (lpm),Sample temperature (°C),Ambient temperature (°C),ASC tube jacket temperature (°C),LED temperature (°C),Box temperature (°C),Sample RH (%),Span deviation,Mass concentration (μg/m³),Mass concentration (μg/m³),Mass concentration (μg/m³)
DateTimeUTC,F1_M11,P_M11,Q1_M11,Q2_M11,T1_M11,T2_M11,T3_M11,T4_M11,T5_M11,U1_M11,ZSPAN_M11,X0_M11,X2_M11,X1_M11
2021-11-11 05:00:00,,0826.1,5.01,0.00,23.7,22.8,00.0,32.7,25.5,10.6,0000.0,0005.00,0002.59,0001.88
2021-11-11 05:01:00,,0826.0,5.00,0.00,23.7,22.8,00.0,32.7,25.5,10.8,0000.0,0005.08,0002.66,0001.92
2021-11-11 05:02:00,,0826.0,5.00,0.00,23.7,22.9,00.0,32.8,25.5,11.1,0000.0,0005.13,0002.70,0001.97
2021-11-11 05:03:00,,0826.0,5.00,0.00,23.7,22.9,00.0,32.8,25.5,10.9,0000.0,0005.11,0002.71,0001.99
2021-11-11 05:04:00,,0826.0,5.01,0.00,23.7,22.8,00.0,32.8,25.5,10.8,0000.0,0005.12,0002.74,0002.04
2021-11-11 05:05:00,,0826.0,4.99,0.00,23.7,22.8,00.0,32.8,25.4,10.7,0000.0,0004.92,0002.70,0002.06
2021-11-11 05:06:00,,0825.9,5.01,0.00,23.6,22.8,00.0,32.7,25.4,10.9,0000.0,0004.79,0002.70,0002.09
2021-11-11 05:07:00,,0825.9,5.00,0.00,23.6,22.8,00.0,32.7,25.3,11.1,0000.0,0004.67,0002.64,0002.10
2021-11-11 05:08:00,,0825.8,5.00,0.00,23.6,22.7,00.0,32.7,25.3,11.1,0000.0,0004.72,0002.59,0002.09
2021-11-11 05:09:00,,0825.7,5.01,0.00,23.6,22.7,00.0,32.7,25.2,11.1,0000.0,0005.78,0002.61,0002.08
2021-11-11 05:10:00,,0825.6,5.01,0.00,23.6,22.6,00.0,32.7,25.2,11.0,0000.0,0005.29,0002.55,0002.05
2021-11-11 05:11:00,,0825.5,5.00,0.00,23.6,22.6,00.0,32.7,25.3,10.8,0000.0,0005.41,0002.51,0002.02
2021-11-11 05:12:00,,0825.5,5.01,0.00,23.6,22.6,00.0,32.7,25.3,10.7,0000.0,0005.40,0002.46,0001.99
2021-11-11 05:13:00,,0825.4,4.99,0.00,23.6,22.6,00.0,32.7,25.2,10.7,0000.0,0005.30,0002.41,0001.98
2021-11-11 05:14:00,,0825.5,5.01,0.00,23.6,22.5,00.0,32.7,25.2,10.6,0000.0,0005.25,0002.39,0001.96
2021-11-11 05:15:00,,0825.6,5.01,0.00,23.6,22.5,00.0,32.7,25.1,11.0,0000.0,0005.29,0002.39,0001.95
2021-11-11 05:16:00,,0825.6,4.99,0.00,23.6,22.5,00.0,32.7,25.2,11.1,0000.0,0005.36,0002.42,0001.96
2021-11-11 05:17:00,,0825.7,5.01,0.00,23.6,22.5,00.0,32.7,25.3,11.1,0000.0,0005.53,0002.48,0001.98
2021-11-11 05:18:00,,0825.8,5.00,0.00,23.6,22.6,00.0,32.7,25.3,10.9,0000.0,0005.80,0002.61,0002.02
2021-11-11 05:19:00,,0825.9,4.99,0.00,23.6,22.6,00.0,32.7,25.3,10.8,0000.0,0005.72,0002.64,0002.06
2021-11-11 05:20:00,,0825.9,5.00,0.00,23.6,22.7,00.0,32.7,25.4,10.7,0000.0,0004.20,0002.67,0002.10
2021-11-11 05:21:00,,0825.9,5.01,0.00,23.6,22.8,00.0,32.7,25.4,10.7,0000.0,0004.34,0002.79,0002.18
2021-11-11 05:22:00,,0825.9,4.99,0.00,23.6,22.8,00.0,32.7,25.5,10.8,0000.0,0004.34,0002.87,0002.24
2021-11-11 05:23:00,,0825.8,4.99,0.00,23.6,22.8,00.0,32.7,25.5,10.9,0000.0,0004.64,0002.99,0002.29
2021-11-11 05:24:00,,0825.9,5.00,0.00,23.7,22.9,00.0,32.7,25.5,10.9,0000.0,0005.02,0003.13,0002.34
2021-11-11 05:25:00,,0826.0,5.00,0.00,23.7,22.9,00.0,32.7,25.5,10.8,0000.0,0005.48,0003.25,0002.41
2021-11-11 05:26:00,,0826.1,5.00,0.00,23.7,22.9,00.0,32.7,25.5,10.7,0000.0,0005.84,0003.31,0002.48
2021-11-11 05:27:00,,0826.2,4.99,0.00,23.7,22.9,00.0,32.7,25.5,10.7,0000.0,0006.62,0003.40,0002.55
2021-11-11 05:28:00,,0826.2,5.00,0.00,23.7,22.9,00.0,32.7,25.5,10.7,0000.0,0007.12,0003.45,0002.61
2021-11-11 05:29:00,,0826.2,5.01,0.00,23.7,22.9,00.0,32.7,25.5,10.7,0000.0,0007.44,0003.47,0002.64
2021-11-11 05:30:00,,0826.2,4.98,0.00,23.7,22.9,00.0,32.7,25.5,10.7,0000.0,0007.59,0003.52,0002.68
2021-11-11 05:31:00,,0826.2,5.01,0.00,23.7,23.0,00.0,32.7,25.5,10.7,0000.0,0007.64,0003.56,0002.70
2021-11-11 05:32:00,,0826.0,4.99,0.00,23.7,23.0,00.0,32.7,25.5,10.7,0000.0,0007.66,0003.56,0002.71
2021-11-11 05:33:00,,0826.0,5.00,0.00,23.7,23.0,00.0,32.7,25.5,10.5,0000.0,0007.77,0003.60,0002.74
2021-11-11 05:34:00,,0826.2,5.01,0.00,23.8,23.0,00.0,32.7,25.6,10.3,0000.0,0007.70,0003.61,0002.79
2021-11-11 05:35:00,,0826.2,4.99,0.00,23.8,23.0,00.0,32.8,25.6,10.4,0000.0,0008.46,0003.60,0002.84
2021-11-11 05:36:00,,0826.2,5.02,0.00,23.8,23.0,00.0,32.8,25.6,10.2,0000.0,0008.59,0003.55,0002.85
2021-11-11 05:37:00,,0826.2,4.99,0.00,23.8,23.0,00.0,32.8,25.5,10.1,0000.0,0008.38,0003.50,0002.82
2021-11-11 05:38:00,,0826.2,5.00,0.00,23.8,23.0,00.0,32.8,25.5,10.1,0000.0,0008.06,0003.46,0002.79
2021-11-11 05:39:00,,0826.2,4.99,0.00,23.8,23.0,00.0,32.8,25.5,10.0,0000.0,0007.80,0003.41,0002.75
2021-11-11 05:40:00,,0826.2,5.01,0.00,23.8,22.9,00.0,32.8,25.4,10.1,0000.0,0007.65,0003.39,0002.73
2021-11-11 05:41:00,,0826.1,5.00,0.00,23.8,22.9,00.0,32.8,25.4,10.1,0000.0,0007.64,0003.41,0002.75
2021-11-11 05:42:00,,0826.0,5.00,0.00,23.7,22.9,00.0,32.8,25.5,10.0,0000.0,0007.67,0003.40,0002.75
2021-11-11 05:43:00,,0826.2,4.99,0.00,23.7,22.9,00.0,32.8,25.5,10.0,0000.0,0007.89,0003.43,0002.77
2021-11-11 05:44:00,,0826.2,5.00,0.00,23.7,22.9,00.0,32.8,25.5,10.0,0000.0,0007.99,0003.42,0002.79
2021-11-11 05:45:00,,0826.2,5.00,0.00,23.8,22.9,00.0,32.8,25.5,09.9,0000.0,0007.98,0003.45,0002.79
2021-11-11 05:46:00,,0826.1,5.01,0.00,23.8,22.9,00.0,32.8,25.5,09.8,0000.0,0006.92,0003.46,0002.80
2021-11-11 05:47:00,,0826.0,4.99,0.00,23.8,22.9,00.0,32.8,25.5,09.6,0000.0,0006.38,0003.44,0002.82
2021-11-11 05:48:00,,0826.1,5.00,0.00,23.7,22.9,00.0,32.8,25.5,09.6,0000.0,0006.55,0003.46,0002.85
2021-11-11 05:49:00,,0826.1,5.00,0.00,23.7,22.9,00.0,32.8,25.4,09.5,0000.0,0006.78,0003.48,0002.89
2021-11-11 05:50:00,,0826.0,5.01,0.00,23.7,22.8,00.0,32.8,25.4,09.6,0000.0,0007.58,0003.51,0002.94
2021-11-11 05:51:00,,0826.0,4.99,0.00,23.7,22.8,00.0,32.8,25.4,09.6,0000.0,0007.52,0003.53,0002.98
2021-11-11 05:52:00,,0825.9,5.02,0.00,23.7,22.7,00.0,32.8,25.3,09.6,0000.0,0007.54,0003.55,0002.99
2021-11-11 05:53:00,,0825.9,4.99,0.00,23.7,22.7,00.0,32.8,25.4,09.5,0000.0,0007.53,0003.56,0003.01
2021-11-11 05:54:00,,0825.9,5.00,0.00,23.6,22.7,00.0,32.7,25.4,09.5,0000.0,0007.48,0003.59,0003.02
2021-11-11 05:55:00,,0825.8,5.01,0.00,23.6,22.7,00.0,32.7,25.3,09.4,0000.0,0007.43,0003.63,0003.02
2021-11-11 05:56:00,,0825.9,4.99,0.00,23.6,22.6,00.0,32.7,25.2,09.4,0000.0,0007.37,0003.60,0003.00
2021-11-11 05:57:00,,0825.8,5.00,0.00,23.6,22.6,00.0,32.7,25.2,09.3,0000.0,0007.43,0003.62,0003.01
2021-11-11 05:58:00,,0825.8,5.00,0.00,23.6,22.5,00.0,32.7,25.2,09.2,0000.0,0007.53,0003.64,0003.01
2021-11-11 05:59:00,,0825.9,5.02,0.00,23.6,22.5,00.0,32.7,25.2,09.4,0000.0,0008.06,0003.69,0003.04
